Tracking 27124 objects as of 31-Mar-2023
HD Live streaming from Space Station
objects crossing your sky now

COSMOS 970 DEB

Track COSMOS 970 DEB now!
10-day predictions


NORAD ID: 13503
Int'l Code: 1977-121BA
Perigee: 1,017.3 km
Apogee: 1,129.8 km
Inclination: 66.5 °
Period: 106.5 minutes
Semi major axis: 7444 km
RCS: 0.0157 m2 (small)
Launch date: December 21, 1977
Source: Commonwealth of Independent States (former USSR) (CIS)
Launch site: TYURATAM MISSILE AND SPACE COMPLEX (TTMTR)

Note: This is SATELLITE DEBRIS
Your satellite tracking list
Your tracking list is empty




NASA's NSSDC Master Catalog

Two Line Element Set (TLE):
1 13503U 77121BA  23089.55731083  .00000554  00000-0  94152-3 0  9992
2 13503  66.4734  15.7967 0075616  64.5082 107.6132 13.51591665998399
Source of the keplerian elements: AFSPC